Location: Natural Bridges National Monument
(37.6093°N, 109.9767°W)
Time: 07:43:26
(UTC-06:00)

Cosmos 1727 Rocket - Visible Passes

Search period start: 29 March 2015 00:00
Search period end: 08 April 2015 00:00
Orbit: 960 x 997 km, 82.9° (Epoch: 28 March)

Date Brightness Start Highest point End Pass type
(mag) Time Alt. Az. Time Alt. Az. Time Alt. Az.
29 Mar 6.1 06:12:38 10° NNE 06:18:03 31° ENE 06:23:36 10° SE visible
29 Mar 7.1 21:29:07 10° W 21:32:30 14° WNW 21:35:33 10° NW visible
30 Mar 4.9 06:38:31 10° N 06:44:41 58° E 06:50:54 10° SSE visible
30 Mar 4.8 20:06:34 10° SSW 20:12:37 58° W 20:18:42 10° N visible
31 Mar 7.1 05:21:38 10° NE 05:24:48 15° ENE 05:28:20 10° E visible
31 Mar 6.1 20:33:50 10° SW 20:39:15 30° WNW 20:44:34 10° NNW visible
01 Apr 6.2 05:46:31 10° NNE 05:51:44 28° ENE 05:57:06 10° SE visible
01 Apr 7.1 21:02:18 10° WSW 21:06:08 16° WNW 21:09:41 10° NNW visible
02 Apr 5.0 06:12:18 10° N 06:18:25 52° E 06:24:34 10° SSE visible
03 Apr 7.1 04:55:51 10° NE 04:58:26 13° ENE 05:01:25 10° E visible
03 Apr 6.0 20:07:21 10° SW 20:12:55 34° WNW 20:18:27 10° NNW visible
04 Apr 6.3 05:20:24 10° NNE 05:25:25 25° ENE 05:30:35 10° SE visible
04 Apr 7.0 20:35:33 10° WSW 20:39:46 18° WNW 20:43:44 10° NNW visible
05 Apr 5.2 05:46:06 10° N 05:52:08 46° ENE 05:58:12 10° SSE visible
06 Apr 7.1 04:30:15 10° NE 04:32:03 11° ENE 04:34:18 10° E visible
06 Apr 4.1 06:12:16 10° N 06:18:37 87° E 06:24:58 10° S visible
07 Apr 6.4 04:54:20 10° NNE 04:59:05 23° ENE 05:04:02 10° ESE visible
07 Apr 6.9 20:08:51 10° WSW 20:13:24 20° WNW 20:17:45 10° NNW visible
